Location: St. Louis
(38.6270°N, 90.1994°W)
Time: 21:01:26
(UTC-06:00)

A-11 Canister half - Pass Details

Date: 05 December 2021
Orbit: 1524 x 1684 km, 47.3° (Epoch: 26 January)

Event Time Altitude Azimuth Distance (km) Brightness Sun altitude
Exits shadow 04:54:33 33° 310° (NW) 2,533 9.6 -24.6°
Maximum altitude 04:59:13 55° 10° (N) 1,927 9.4 -23.7°
Drops below altitude 10° 05:08:49 10° 87° (E) 3,832 12.1 -21.8°
Sets 05:12:00 0° 92° (E) 4,795 13.1 -21.2°
